EW7119 Weather Reports


time (UTC)temp
C
wind
direction
speed
KPH
gust
KPH
rain 1hr
cm
rain 24hr
cm
rain mn
cm
humidity
%
barometer
mb
20260906221507 23 91 0.0 16.1 0.00 0.00 0.00 30 1000.3
20260906220005 23 140 1.6 12.9 0.00 0.00 0.00 30 1000.3
20260906214514 24 148 0.0 12.9 0.00 0.00 0.00 28 1000.7
20260906213034 25 163 0.0 11.3 0.00 0.00 0.00 27 1000.8
20260906211541 24 150 0.0 8.0 0.00 0.00 0.00 27 1001.1
20260906210047 23 217 0.0 14.5 0.00 0.00 0.00 27 1001.2
20260906204610 23 140 1.6 17.7 0.00 0.00 0.00 29 1001.3
20260906203045 23 145 0.0 14.5 0.00 0.00 0.00 34 1001.2
20260906201615 23 128 4.8 22.5 0.00 0.00 0.00 35 1001.5
20260906200031 24 159 0.0 19.3 0.00 0.00 0.00 31 1001.6
20260906194547 24 168 0.0 1.6 0.00 0.00 0.00 30 1001.8
20260906193047 23 150 0.0 1.6 0.00 0.00 0.00 32 1001.8
20260906183056 23 160 0.0 3.2 0.00 0.00 0.00 30 1002.5
20260906181559 23 186 0.0 14.5 0.00 0.00 0.00 33 1002.7
20260906180047 22 121 0.0 9.7 0.00 0.00 0.00 36 1003.0
20260906174608 22 146 0.0 0.0 0.00 0.00 0.00 36 1003.4
20260906173108 22 158 0.0 0.0 0.00 0.00 0.00 36 1003.5
20260906171600 22 254 0.0 0.0 0.00 0.00 0.00 35 1003.8
20260906170103 21 279 0.0 0.0 0.00 0.00 0.00 36 1003.9
20260906164601 20 272 0.0 0.0 0.00 0.00 0.00 36 1003.9
20260906163002 21 147 0.0 0.0 0.00 0.00 0.00 34 1003.6
20260906161513 21 186 0.0 0.0 0.00 0.00 0.00 36 1003.6
20260906160010 21 260 0.0 0.0 0.00 0.00 0.00 38 1003.5
20260906154532 20 192 0.0 0.0 0.00 0.00 0.00 37 1003.4
20260906153127 20 273 0.0 0.0 0.00 0.00 0.00 39 1003.3
20260906151606 20 269 0.0 0.0 0.00 0.00 0.00 42 1003.3
20260906150113 18 139 0.0 0.0 0.00 0.00 0.00 46 1003.3
20260906144620 17 139 0.0 0.0 0.00 0.00 0.00 50 1003.3
20260906143003 16 139 0.0 0.0 0.00 0.00 0.00 59 1003.3
20260906141506 14 139 0.0 0.0 0.00 0.00 0.00 64 1003.3
20260906140016 13 139 0.0 0.0 0.00 0.00 0.00 68 1003.2
20260906134646 12 106 0.0 0.0 0.00 0.00 0.00 69 1003.2
20260906133107 12 106 0.0 0.0 0.00 0.00 0.00 68 1003.1
20260906131611 11 96 0.0 0.0 0.00 0.00 0.00 70 1003.0
20260906130013 11 96 0.0 0.0 0.00 0.00 0.00 70 1002.7
20260906124516 11 96 0.0 0.0 0.00 0.00 0.00 70 1002.7
20260906123042 11 96 0.0 0.0 0.00 0.00 0.00 68 1002.7
20260906121521 12 96 0.0 0.0 0.00 0.00 0.00 67 1002.6
20260906120044 12 96 0.0 0.0 0.00 0.00 0.00 68 1002.4
20260906114549 12 96 0.0 0.0 0.00 0.00 0.00 67 1002.4
20260906113051 12 96 0.0 0.0 0.00 0.00 0.00 66 1002.4
20260906111504 12 96 0.0 0.0 0.00 0.00 0.00 65 1002.4
20260906110013 12 96 0.0 0.0 0.00 0.00 0.00 64 1002.3
20260906104530 13 96 0.0 0.0 0.00 0.00 0.00 64 1002.4
20260906103053 13 96 0.0 0.0 0.00 0.00 0.00 63 1002.4
20260906101602 12 96 0.0 0.0 0.00 0.00 0.00 64 1002.5
20260906100108 13 96 0.0 0.0 0.00 0.00 0.00 62 1002.5
20260906094501 13 96 0.0 0.0 0.00 0.00 0.00 59 1002.6
20260906093022 13 96 0.0 0.0 0.00 0.00 0.00 59 1002.5
20260906091507 13 96 0.0 0.0 0.00 0.00 0.00 60 1002.5
20260906090116 13 96 0.0 0.0 0.00 0.00 0.00 61 1002.4
20260906084504 13 92 0.0 0.0 0.00 0.00 0.00 59 1002.2
20260906083004 14 86 0.0 0.0 0.00 0.00 0.00 58 1002.3
20260906081521 14 51 0.0 0.0 0.00 0.00 0.00 56 1002.4
20260906080020 14 94 0.0 0.0 0.00 0.00 0.00 57 1002.4
20260906074533 15 42 0.0 1.6 0.00 0.00 0.00 56 1002.4
20260906073103 14 27 0.0 0.0 0.00 0.00 0.00 58 1002.5
20260906071609 15 34 0.0 0.0 0.00 0.00 0.00 56 1002.5
20260906070120 15 33 0.0 0.0 0.00 0.00 0.00 56 1002.6
20260906064605 15 32 0.0 0.0 0.00 0.00 0.00 58 1002.6
20260906063001 15 282 0.0 0.0 0.00 0.00 0.00 55 1002.4
20260906061508 16 282 0.0 0.0 0.00 0.00 0.00 55 1002.4
20260906060021 17 193 0.0 1.6 0.00 0.00 0.00 51 1002.5
20260906054544 17 150 0.0 0.0 0.00 0.00 0.00 50 1002.5
20260906053056 17 145 0.0 4.8 0.00 0.00 0.00 50 1002.5
20260906051600 17 122 0.0 14.5 0.00 0.00 0.00 51 1002.7
20260906050111 17 166 0.0 11.3 0.00 0.00 0.00 51 1002.7
20260906044558 17 145 0.0 8.0 0.00 0.00 0.00 50 1002.8
20260906043112 17 147 0.0 9.7 0.00 0.00 0.00 50 1002.8
20260906041502 15 178 0.0 0.0 0.00 0.00 0.00 53 1003.0
20260906040010 15 176 0.0 0.0 0.00 0.00 0.00 54 1002.8
20260906034520 15 184 0.0 0.0 0.00 0.00 0.00 53 1002.9
20260906033039 16 186 0.0 0.0 0.00 0.00 0.00 50 1002.8
20260906031532 17 186 0.0 0.0 0.00 0.00 0.00 47 1002.8
20260906030113 17 186 0.0 0.0 0.00 0.00 0.00 45 1002.5
20260906024610 17 242 0.0 0.0 0.00 0.00 0.00 44 1002.2
20260906023132 18 126 0.0 1.6 0.00 0.00 0.00 43 1002.0
20260906021615 18 148 0.0 0.0 0.00 0.00 0.00 43 1001.9
20260906020104 18 137 0.0 9.7 0.00 0.00 0.00 43 1001.7
20260906014626 18 131 0.0 17.7 0.00 0.00 0.00 43 1001.6
20260906013108 18 145 0.0 12.9 0.00 0.00 0.00 44 1001.6
20260906011604 19 147 0.0 17.7 0.00 0.00 0.00 43 1001.6
20260906010106 20 154 0.0 16.1 0.00 0.00 0.00 42 1001.5
20260906004614 20 146 1.6 22.5 0.00 0.00 0.00 39 1001.5
20260906003055 21 122 0.0 17.7 0.00 0.00 0.00 37 1001.6
20260906001559 20 136 0.0 1.6 0.00 0.00 0.00 40 1001.5
20260906000114 20 126 0.0 12.9 0.00 0.00 0.00 39 1001.7
20260905234511 21 148 0.0 17.7 0.00 0.00 0.00 39 1001.5
20260905233041 21 140 0.0 16.1 0.00 0.00 0.00 38 1001.4
20260905231530 21 141 0.0 16.1 0.00 0.00 0.00 40 1001.2
20260905230049 21 121 1.6 20.9 0.00 0.00 0.00 39 1001.3
20260905224607 21 160 0.0 1.6 0.00 0.00 0.00 39 1001.4
20260905223054 21 134 1.6 14.5 0.00 0.00 0.00 39 1001.4